LFPM 131200Z AUTO 08009KT 040V120 CAVOK 10/M05 Q1032

Les avions qui composent notre flotte

Avion Robin DR400-100

Avion école

(freins aux palonniers)

F-GGJG
   * tarif promotionnel appliqué pendant la formation des élèves non brevetés


F-GGJG Planche